Showing default

GALAXY 14, 28790

Orbit data source: Space-Track

GALAXY 14, 28790 is a payload satellite owned by Panamsat (US) in GEO that was launched on Sat, 13 Aug 2005 UTC via a SOYUZ-FG launch vehicle from the Tyuratam Missile And Space Complex (TTMTR). Payloads include a variety of satellites, spacecraft, and rockets equipped with specific instruments for various scientific and technological missions. These include communications satellites like Starlink; space stations such as the ISS; scientific satellites like the Hubble; Earth observation satellites from companies like Planet Labs, Umbra, and HawkEye 360; GPS; miniature CubeSats for education and research; and military/defense satellites.

Not visible in the next 10 days
GALAXY 14 details
Identifier
28790, 2005-030A
Orbit
GEO
Last TLE update16 hours ago
Origin
Flag of USPanamsat (US)
ManufacturerOSC
MissionOperational Commercial Communications
Bus & MotorOSC STAR 2, IHI LAE
Mass2,087 kg wet, ~850 kg dry
Launch date (UTC)
2005-08-13 (19 years ago)
Launch vehicle
SOYUZ-FG
Launch site
Tyuratam Missile And Space Complex (TTMTR)
Object type
Payload
Rocket body
Debris
Shape & HBRBox + 2 Pan, 12.6 m
Radar Cross Section13.542 m², Large (>1 m²)

Expand to show TLE details & history

TLE from 16 hours ago
0 GALAXY 14
1 28790U 05030A   25035.50413608 -.00000194  00000-0  00000-0 0  9991
2 28790   3.7356  81.1252 0003562 288.6602 121.5252  0.98916446 71305
Epoch: 2025-02-04T12:05Z
Definitive object data (Epoch: 2025-02-04T12:05:57.357Z)
Latitude2.88201°
Longitude174.90849°
Altitude36,178.033 km
Speed3.06 km/s
True Right ascension08h 45m 13s
True Declination2° 52' 45"
Sunlit
Object was in daylight at TLE epoch
Visualization TLE readout
Latitude-3.59999°
Longitude51.48734°
Altitude36,155.765 km
Speed3.062 km/s
Apparent Right ascension00h 05m 01s
Apparent Declination-9° 05' 02"
Sunlit
Object is in daylight
Visualization observer readout
Local Sidereal Time06:04:09
Azimuth262.87° W
Elevation-5.647°
Doppler factor1
Orbital elements
Apogee altitude36,187.088 km
Perigee altitude36,156.776 km
Semi-major axis42,550.069 km
Eccentricity0.0003562
Inclination3.7356°
RAAN81.1252°
Arg. of periapsis288.6602°
True anomaly121.55999°
Mean anomaly121.5252°
Eccentric anomaly121.54259°
Mean motion0.24728 °/min
BSTARUnknown
Orbital period1455.83 mins
Loading historical data...
28790 neighbors
Authenticating...
Loading maneuver chart data...
Loading historical data...
Loading historical data...
Loading historical data...
Loading historical data...
Loading historical data...
Loading historical data...
Loading historical data...
Other satellites on launch #30 in the year 2005 (2005-08-13 UTC)

GALAXY 14 Visibility forecast

Observer location: undefined°, undefined

GALAXY 14 is not visible in the next 10 days
Span
Click to sort rows by Start time (UTC) header in descending order
Start Az.
Max El. time (UTC)
Max El. Az.
Max El.
End time (UTC)
End Az.
|